• In Hungary
  • List of Countries
  • For 7 days
  • Water Temperature
  • Satellite Maps
  • Weather Map
  • News
  • Weather Widgets
  • user-avatar
    Login

    Hourly Weather Horoshovo

    Today, 13 December, Wednesday

    Time Temperature Precipitation Wind Pressure Humidity
    00:00 0°C° 0.1 mm 5 mps 729 mmHg 93%
    01:00 0°C° 0.1 mm 4 mps 729 mmHg 94%
    02:00 0°C° 0.1 mm 4 mps 730 mmHg 95%
    03:00 0°C° 0 mm 4 mps 730 mmHg 95%
    04:00 0°C° 0 mm 4 mps 730 mmHg 95%
    05:00 +1°C° 0 mm 4 mps 730 mmHg 95%
    06:00 0°C° 0 mm 4 mps 730 mmHg 92%
    07:00 0°C° 0 mm 5 mps 730 mmHg 90%
    08:00 0°C° 0 mm 5 mps 730 mmHg 88%
    09:00 0°C° 0 mm 5 mps 731 mmHg 86%
    10:00 -1°C° 0 mm 5 mps 731 mmHg 85%
    11:00 -1°C° 0 mm 5 mps 732 mmHg 83%
    12:00 -1°C° 0 mm 5 mps 732 mmHg 82%
    13:00 -1°C° 0 mm 5 mps 732 mmHg 82%
    14:00 -2°C° 0 mm 4 mps 733 mmHg 82%
    15:00 -2°C° 0 mm 4 mps 733 mmHg 83%
    16:00 -2°C° 0 mm 4 mps 734 mmHg 85%
    17:00 -1°C° 0 mm 3 mps 734 mmHg 87%
    18:00 -2°C° 0 mm 3 mps 735 mmHg 89%
    19:00 -2°C° 0 mm 2 mps 735 mmHg 90%
    20:00 -2°C° 0 mm 2 mps 736 mmHg 92%
    21:00 -3°C° 0 mm 2 mps 736 mmHg 93%
    22:00 -3°C° 0 mm 2 mps 736 mmHg 94%
    23:00 -3°C° 0 mm 2 mps 736 mmHg 94%

    Tomorrow, 14 December, Thursday

    Time Temperature Precipitation Wind Pressure Humidity
    00:00 -4°C° 0 mm 2 mps 736 mmHg 95%
    01:00 -4°C° 0 mm 2 mps 736 mmHg 95%
    02:00 -3°C° 0 mm 1 mps 736 mmHg 95%
    03:00 -3°C° 0 mm 1 mps 736 mmHg 95%
    04:00 -3°C° 0 mm 1 mps 736 mmHg 94%
    05:00 -3°C° 0 mm 1 mps 736 mmHg 94%
    06:00 -4°C° 0 mm 1 mps 735 mmHg 94%
    07:00 -4°C° 0 mm 1 mps 735 mmHg 94%
    08:00 -4°C° 0 mm 1 mps 735 mmHg 94%
    09:00 -3°C° 0 mm 1 mps 735 mmHg 93%
    10:00 -3°C° 0 mm 1 mps 734 mmHg 91%
    11:00 -2°C° 0 mm 1 mps 734 mmHg 90%
    12:00 -3°C° 0 mm 1 mps 733 mmHg 91%
    13:00 -3°C° 0 mm 1 mps 733 mmHg 92%
    14:00 -3°C° 0 mm 1 mps 732 mmHg 93%
    15:00 -3°C° 0 mm 1 mps 732 mmHg 94%
    16:00 -6°C° 0 mm 2 mps 731 mmHg 96%
    17:00 -6°C° 0 mm 2 mps 731 mmHg 97%
    18:00 -6°C° 0 mm 2 mps 731 mmHg 96%
    19:00 -6°C° 0 mm 2 mps 730 mmHg 96%
    20:00 -6°C° 0 mm 2 mps 730 mmHg 96%
    21:00 -5°C° 0 mm 2 mps 729 mmHg 96%
    22:00 -6°C° 0 mm 3 mps 729 mmHg 96%
    23:00 -5°C° 0 mm 3 mps 728 mmHg 95%

    Day after tomorrow, 15 December, Friday

    Time Temperature Precipitation Wind Pressure Humidity
    00:00 -5°C° 0 mm 3 mps 728 mmHg 94%
    01:00 -4°C° 0 mm 4 mps 728 mmHg 93%
    02:00 -4°C° 0 mm 4 mps 727 mmHg 92%
    03:00 -3°C° 0.1 mm 4 mps 727 mmHg 91%
    04:00 -3°C° 0.1 mm 4 mps 727 mmHg 89%
    05:00 -2°C° 0.1 mm 5 mps 727 mmHg 87%
    06:00 -2°C° 0 mm 5 mps 727 mmHg 87%
    07:00 -2°C° 0 mm 5 mps 728 mmHg 86%
    08:00 -2°C° 0 mm 5 mps 728 mmHg 85%
    09:00 -2°C° 0 mm 5 mps 728 mmHg 84%
    10:00 -2°C° 0 mm 5 mps 729 mmHg 83%
    11:00 -2°C° 0 mm 5 mps 729 mmHg 82%
    12:00 -2°C° 0 mm 5 mps 730 mmHg 82%
    13:00 -2°C° 0 mm 5 mps 730 mmHg 82%
    14:00 -2°C° 0 mm 5 mps 731 mmHg 83%
    15:00 -3°C° 0 mm 4 mps 731 mmHg 85%
    16:00 -3°C° 0 mm 4 mps 732 mmHg 86%
    17:00 -4°C° 0 mm 4 mps 732 mmHg 88%
    18:00 -4°C° 0 mm 3 mps 731 mmHg 88%
    19:00 -4°C° 0 mm 3 mps 731 mmHg 89%
    20:00 -4°C° 0 mm 3 mps 731 mmHg 89%
    21:00 -3°C° 0.3 mm 4 mps 730 mmHg 89%
    22:00 -3°C° 0.3 mm 4 mps 729 mmHg 90%
    23:00 -4°C° 0.3 mm 5 mps 729 mmHg 91%

    16 December, Saturday

    Time Temperature Precipitation Wind Pressure Humidity
    00:00 -2°C° 0.5 mm 5 mps 728 mmHg 90%
    01:00 -2°C° 0.5 mm 6 mps 726 mmHg 88%
    02:00 -2°C° 0.5 mm 7 mps 725 mmHg 87%
    03:00 -1°C° 0.9 mm 7 mps 724 mmHg 88%
    04:00 -1°C° 0.9 mm 7 mps 723 mmHg 89%
    05:00 0°C° 0.9 mm 7 mps 722 mmHg 90%
    06:00 -1°C° 0.1 mm 7 mps 723 mmHg 88%
    07:00 -1°C° 0.1 mm 7 mps 723 mmHg 86%
    08:00 -1°C° 0.1 mm 7 mps 724 mmHg 83%
    09:00 -2°C° 0 mm 6 mps 725 mmHg 83%
    10:00 -2°C° 0 mm 6 mps 726 mmHg 82%
    11:00 -2°C° 0 mm 6 mps 727 mmHg 81%
    12:00 -1°C° 0 mm 5 mps 727 mmHg 83%
    13:00 -1°C° 0 mm 5 mps 728 mmHg 85%
    14:00 -1°C° 0 mm 4 mps 729 mmHg 87%
    15:00 -1°C° 0 mm 3 mps 729 mmHg 89%
    16:00 -1°C° 0 mm 3 mps 730 mmHg 91%
    17:00 -1°C° 0 mm 2 mps 730 mmHg 93%
    18:00 -2°C° 0 mm 2 mps 731 mmHg 93%
    19:00 -2°C° 0 mm 2 mps 731 mmHg 94%
    20:00 -3°C° 0 mm 2 mps 731 mmHg 95%
    21:00 -3°C° 0 mm 2 mps 732 mmHg 95%
    22:00 -3°C° 0 mm 2 mps 732 mmHg 95%
    23:00 -3°C° 0 mm 2 mps 733 mmHg 95%

    17 December, Sunday

    Time Temperature Precipitation Wind Pressure Humidity
    00:00 -3°C° 0 mm 2 mps 733 mmHg 95%
    01:00 -3°C° 0 mm 2 mps 734 mmHg 95%
    02:00 -3°C° 0 mm 2 mps 734 mmHg 95%
    03:00 -3°C° 0 mm 2 mps 734 mmHg 94%
    04:00 -3°C° 0 mm 2 mps 735 mmHg 94%
    05:00 -3°C° 0 mm 2 mps 735 mmHg 93%
    06:00 -4°C° 0 mm 2 mps 736 mmHg 93%
    07:00 -4°C° 0 mm 2 mps 736 mmHg 93%
    08:00 -4°C° 0 mm 2 mps 737 mmHg 93%
    09:00 -4°C° 0 mm 2 mps 737 mmHg 93%
    10:00 -4°C° 0 mm 2 mps 738 mmHg 92%
    11:00 -3°C° 0 mm 2 mps 738 mmHg 92%
    12:00 -2°C° 0 mm 1 mps 738 mmHg 93%
    13:00 -2°C° 0 mm 1 mps 738 mmHg 94%
    14:00 -2°C° 0 mm 1 mps 738 mmHg 94%
    15:00 -2°C° 0 mm 1 mps 739 mmHg 94%
    16:00 -3°C° 0 mm 1 mps 739 mmHg 95%
    17:00 -3°C° 0 mm 1 mps 739 mmHg 95%
    18:00 -3°C° 0 mm 1 mps 740 mmHg 95%
    19:00 -3°C° 0 mm 1 mps 740 mmHg 94%
    20:00 -4°C° 0 mm 0 mps 740 mmHg 94%
    21:00 -3°C° 0 mm 1 mps 740 mmHg 94%
    22:00 -3°C° 0 mm 1 mps 740 mmHg 95%
    23:00 -3°C° 0 mm 1 mps 740 mmHg 95%

    18 December, Monday

    Time Temperature Precipitation Wind Pressure Humidity
    00:00 -3°C° 0 mm 1 mps 741 mmHg 95%
    01:00 -3°C° 0 mm 1 mps 741 mmHg 95%
    02:00 -3°C° 0 mm 1 mps 741 mmHg 95%
    03:00 -5°C° 0 mm 2 mps 741 mmHg 94%
    04:00 -5°C° 0 mm 2 mps 741 mmHg 94%
    05:00 -5°C° 0 mm 2 mps 741 mmHg 94%
    06:00 -5°C° 0 mm 2 mps 741 mmHg 93%
    07:00 -5°C° 0 mm 2 mps 741 mmHg 93%
    08:00 -5°C° 0 mm 2 mps 741 mmHg 92%
    09:00 -6°C° 0 mm 3 mps 741 mmHg 92%
    10:00 -5°C° 0 mm 3 mps 741 mmHg 91%
    11:00 -5°C° 0 mm 3 mps 741 mmHg 90%
    12:00 -5°C° 0 mm 3 mps 741 mmHg 90%
    13:00 -5°C° 0 mm 3 mps 741 mmHg 90%
    14:00 -6°C° 0 mm 3 mps 740 mmHg 90%
    15:00 -6°C° 0 mm 3 mps 741 mmHg 90%
    16:00 -6°C° 0 mm 3 mps 741 mmHg 91%
    17:00 -6°C° 0 mm 3 mps 741 mmHg 91%
    18:00 -6°C° 0 mm 3 mps 741 mmHg 91%
    19:00 -6°C° 0 mm 3 mps 741 mmHg 90%
    20:00 -7°C° 0 mm 3 mps 741 mmHg 90%
    21:00 -7°C° 0 mm 3 mps 741 mmHg 90%
    22:00 -7°C° 0 mm 3 mps 741 mmHg 89%
    23:00 -7°C° 0 mm 3 mps 741 mmHg 89%
    Show more